Погода в Ойском

Россия / Красноярский край     53°14′39″N   92°29′49″E
темп.,
°C
ветер,
м/с
пор.,
м/с
влажн.,
%
обл.,
%
осадки,
мм/ч
давл.,
гПа
погр.,
м
15 мая, сб
сб1501:00+9зсз2486100 1.7 1022106
04:00+9зюз1182100 0.0 102210
07:00+10юз1278100 0.0 1023115
10:00+14з485387 0.0 10231415
13:00+18з693732 0.0 10211851
16:00+20з693934 0.0 10192076
19:00+16сз246170 0.0 1020308
22:00+13юв2374100 0.0 102171
16 мая, вс
вс1601:00+12ю1176100 0.0 101913
04:00+12ююз227194 0.0 101840
07:00+12юз1169100 0.0 101816
10:00+14юв1169100 0.0 101754
13:00+13в2382100 0.4 101689
16:00+19зсз285791 0.1 1012840
19:00+21зюз5125152 0.1 1009890
22:00+13з31094100 2.9 1013670
17 мая, пн
пн1701:00+14зюз61386100 4.3 1012761
04:00+13юз3993100 1.8 1010426
07:00+12зсз1599100 17.1 1010314
10:00+14ссз238782 4.6 1012593
13:00+11з2491100 5.1 1015264
16:00+14зюз237797 0.0 1015719
19:00+11ююз1292100 0.2 101560
22:00+11зсз1193100 0.4 101515
18 мая, вт
вт1801:00+10вюв1196100 1.2 101416
04:00+10всв119796 0.6 101426
07:00+11ю1292100 0.6 1013120
10:00+16з4976100 0.7 10091144
13:00+14зюз71381100 2.7 1008959
16:00+14зюз61583100 2.4 10051081
19:00+12сз3896100 9.0 1006468
22:00+11ю1298100 5.7 100779
19 мая, ср
ср1901:00+11з1297100 6.0 100755
04:00+10ююв1199100 4.2 100563
07:00+11ююз1196100 5.8 100344
10:00+15з41184100 1.3 10001192
13:00+8зсз2693100 5.5 1005608
16:00+7з4796100 7.7 1008523
19:00+7юз3595100 9.3 1008278
22:00+6зюз4895100 0.4 1008393